TimePST,TemperatureF,Dew PointF,Humidity,Sea Level PressureIn,VisibilityMPH,Wind Direction,Wind SpeedMPH,Gust SpeedMPH,PrecipitationIn,Events,Conditions,WindDirDegrees,DateUTC
12:15 AM,46.4,41.0,81,30.25,10.0,East,3.5,-,N/A,,Overcast,80,2013-02-03 08:15:00
12:35 AM,46.4,41.0,81,30.25,10.0,SSE,5.8,-,N/A,,Overcast,150,2013-02-03 08:35:00
12:55 AM,46.4,39.2,76,30.24,10.0,South,5.8,-,N/A,,Overcast,170,2013-02-03 08:55:00
1:15 AM,46.4,39.2,76,30.23,10.0,ESE,4.6,-,N/A,,Overcast,110,2013-02-03 09:15:00
1:35 AM,46.4,39.2,76,30.21,10.0,SE,10.4,-,N/A,,Overcast,140,2013-02-03 09:35:00
1:55 AM,46.4,39.2,76,30.22,10.0,SE,8.1,-,N/A,,Overcast,130,2013-02-03 09:55:00
2:15 AM,46.4,39.2,76,30.22,10.0,SE,6.9,-,N/A,,Overcast,130,2013-02-03 10:15:00
2:35 AM,46.4,39.2,76,30.21,10.0,SE,8.1,-,N/A,,Overcast,130,2013-02-03 10:35:00
2:55 AM,46.4,37.4,71,30.21,10.0,SSE,4.6,-,N/A,,Overcast,150,2013-02-03 10:55:00
3:15 AM,44.6,37.4,76,30.21,10.0,Calm,Calm,-,N/A,,Mostly Cloudy,0,2013-02-03 11:15:00
3:35 AM,42.8,37.4,81,30.21,10.0,Calm,Calm,-,N/A,,Mostly Cloudy,0,2013-02-03 11:35:00
3:55 AM,41.0,37.4,87,30.20,10.0,Calm,Calm,-,N/A,,Overcast,0,2013-02-03 11:55:00
4:15 AM,41.0,37.4,87,30.20,10.0,ENE,4.6,-,N/A,,Overcast,70,2013-02-03 12:15:00
4:35 AM,41.0,37.4,87,30.20,10.0,Calm,Calm,-,N/A,,Mostly Cloudy,0,2013-02-03 12:35:00
4:55 AM,39.2,37.4,93,30.20,10.0,Calm,Calm,-,N/A,,Scattered Clouds,0,2013-02-03 12:55:00
5:15 AM,37.4,35.6,93,30.20,10.0,Calm,Calm,-,N/A,,Partly Cloudy,0,2013-02-03 13:15:00
5:55 AM,37.4,35.6,93,30.19,10.0,Calm,Calm,-,N/A,,Clear,0,2013-02-03 13:55:00
6:15 AM,35.6,33.8,93,30.19,10.0,Calm,Calm,-,N/A,,Clear,0,2013-02-03 14:15:00
6:35 AM,35.6,33.8,93,30.19,10.0,North,3.5,-,N/A,,Clear,10,2013-02-03 14:35:00
6:55 AM,37.4,35.6,93,30.19,10.0,North,3.5,-,N/A,,Clear,10,2013-02-03 14:55:00
7:15 AM,39.2,35.6,87,30.19,10.0,Calm,Calm,-,N/A,,Clear,0,2013-02-03 15:15:00
7:35 AM,41.0,35.6,81,30.19,10.0,NW,3.5,-,N/A,,Clear,320,2013-02-03 15:35:00
7:55 AM,44.6,37.4,76,30.20,10.0,Calm,Calm,-,N/A,,Clear,0,2013-02-03 15:55:00
8:15 AM,44.6,37.4,76,30.20,10.0,Calm,Calm,-,N/A,,Clear,0,2013-02-03 16:15:00
8:35 AM,48.2,37.4,66,30.20,9.0,Calm,Calm,-,N/A,,Clear,0,2013-02-03 16:35:00
8:55 AM,50.0,37.4,62,30.21,10.0,NW,6.9,-,N/A,,Unknown,310,2013-02-03 16:55:00
9:15 AM,51.8,37.4,58,30.21,10.0,WNW,6.9,-,N/A,,Clear,290,2013-02-03 17:15:00
9:35 AM,53.6,35.6,51,30.21,10.0,WNW,9.2,-,N/A,,Clear,290,2013-02-03 17:35:00
9:55 AM,53.6,33.8,47,30.21,9.0,WNW,12.7,-,N/A,,Clear,300,2013-02-03 17:55:00
10:15 AM,55.4,32.0,41,30.21,8.0,NW,13.8,18.4,N/A,,Clear,320,2013-02-03 18:15:00
10:55 AM,-9999,-9999,N/A,-9999,-9999.0,North,-9999.0,-,N/A,,Unknown,0,2013-02-03 18:55:00
11:15 AM,-9999,-9999,N/A,-9999,5.0,North,-9999.0,-,N/A,,Haze,0,2013-02-03 19:15:00
11:35 AM,-9999,-9999,N/A,-9999,-9999.0,North,-9999.0,-,N/A,,Unknown,0,2013-02-03 19:35:00
11:55 AM,-9999,-9999,N/A,-9999,-9999.0,North,-9999.0,-,N/A,,Unknown,0,2013-02-03 19:55:00
12:15 PM,53.6,37.4,54,30.17,5.0,NW,15.0,-,N/A,,Haze,310,2013-02-03 20:15:00
12:35 PM,-9999,-9999,N/A,30.16,5.0,NW,13.8,-,N/A,,Haze,310,2013-02-03 20:35:00
12:55 PM,-9999,-9999,N/A,30.15,7.0,NW,12.7,17.3,N/A,,Unknown,320,2013-02-03 20:55:00
1:15 PM,-9999,-9999,N/A,-9999,-9999.0,North,-9999.0,-,N/A,,Unknown,0,2013-02-03 21:15:00
1:35 PM,-9999,-9999,N/A,-9999,-9999.0,North,-9999.0,-,N/A,,Unknown,0,2013-02-03 21:35:00
1:55 PM,-9999,-9999,N/A,-9999,-9999.0,North,-9999.0,-,N/A,,Unknown,0,2013-02-03 21:55:00
2:15 PM,55.4,35.6,47,30.13,8.0,NW,18.4,23.0,N/A,,Clear,320,2013-02-03 22:15:00
2:35 PM,55.4,35.6,47,30.13,8.0,NW,16.1,24.2,N/A,,Clear,320,2013-02-03 22:35:00
2:55 PM,55.4,32.0,41,30.13,9.0,NW,18.4,24.2,N/A,,Clear,320,2013-02-03 22:55:00
3:15 PM,55.4,32.0,41,30.13,10.0,NW,16.1,23.0,N/A,,Clear,320,2013-02-03 23:15:00
3:35 PM,53.6,32.0,44,30.13,9.0,NW,16.1,-,N/A,,Clear,310,2013-02-03 23:35:00
3:55 PM,53.6,33.8,47,30.13,7.0,NW,15.0,-,N/A,,Clear,320,2013-02-03 23:55:00
4:15 PM,51.8,35.6,54,30.13,7.0,NW,12.7,-,N/A,,Clear,320,2013-02-04 00:15:00
4:35 PM,50.0,37.4,62,30.13,5.0,NW,10.4,-,N/A,,Haze,320,2013-02-04 00:35:00
4:55 PM,48.2,39.2,71,30.13,4.0,NW,11.5,-,N/A,,Haze,320,2013-02-04 00:55:00
5:15 PM,48.2,35.6,62,30.12,5.0,NW,11.5,-,N/A,,Haze,310,2013-02-04 01:15:00
5:35 PM,44.6,37.4,76,30.13,3.0,North,9.2,-,N/A,,Haze,350,2013-02-04 01:35:00
5:55 PM,42.8,35.6,76,30.13,5.0,NW,8.1,-,N/A,,Haze,320,2013-02-04 01:55:00
6:15 PM,46.4,30.2,53,30.14,10.0,NW,10.4,-,N/A,,Clear,310,2013-02-04 02:15:00
6:35 PM,42.8,35.6,76,30.14,5.0,WSW,6.9,-,N/A,,Haze,240,2013-02-04 02:35:00
6:55 PM,41.0,33.8,76,30.15,6.0,West,4.6,-,N/A,,Haze,280,2013-02-04 02:55:00
7:15 PM,41.0,32.0,70,30.15,6.0,Calm,Calm,-,N/A,,Haze,0,2013-02-04 03:15:00
7:55 PM,39.2,28.4,65,30.15,10.0,Calm,Calm,-,N/A,,Clear,0,2013-02-04 03:55:00
8:15 PM,39.2,32.0,75,30.15,8.0,Calm,Calm,-,N/A,,Clear,0,2013-02-04 04:15:00
8:35 PM,37.4,28.4,70,30.15,10.0,Calm,Calm,-,N/A,,Clear,0,2013-02-04 04:35:00
8:55 PM,33.8,28.4,81,30.15,7.0,SE,4.6,-,N/A,,Clear,140,2013-02-04 04:55:00
9:15 PM,33.8,28.4,81,30.16,9.0,East,4.6,-,N/A,,Clear,80,2013-02-04 05:15:00
9:35 PM,35.6,28.4,75,30.16,9.0,South,4.6,-,N/A,,Clear,190,2013-02-04 05:35:00
9:55 PM,32.0,28.4,87,30.16,10.0,East,5.8,-,N/A,,Clear,80,2013-02-04 05:55:00
10:15 PM,33.8,26.6,75,30.17,10.0,Calm,Calm,-,N/A,,Clear,0,2013-02-04 06:15:00
10:35 PM,37.4,28.4,70,30.17,10.0,SW,6.9,-,N/A,,Clear,230,2013-02-04 06:35:00
10:55 PM,39.2,30.2,70,30.17,10.0,WSW,5.8,-,N/A,,Clear,250,2013-02-04 06:55:00
11:15 PM,37.4,30.2,75,30.17,10.0,Calm,Calm,-,N/A,,Clear,0,2013-02-04 07:15:00
11:35 PM,32.0,28.4,87,30.16,10.0,SSE,8.1,-,N/A,,Clear,150,2013-02-04 07:35:00
11:55 PM,32.0,28.4,87,30.16,9.0,SE,4.6,-,N/A,,Clear,140,2013-02-04 07:55:00